TimeMST,TemperatureF,Dew PointF,Humidity,Sea Level PressureIn,VisibilityMPH,Wind Direction,Wind SpeedMPH,Gust SpeedMPH,PrecipitationIn,Events,Conditions,WindDirDegrees,DateUTC
12:53 AM,21.0,15.1,78,30.44,10.0,NNE,5.8,-,N/A,,Clear,30,2012-11-13 07:53:00
1:53 AM,21.0,15.1,78,30.43,10.0,Calm,Calm,-,N/A,,Clear,0,2012-11-13 08:53:00
2:53 AM,21.9,16.0,78,30.41,10.0,NE,4.6,-,N/A,,Clear,50,2012-11-13 09:53:00
3:53 AM,23.0,16.0,74,30.40,10.0,East,4.6,-,N/A,,Clear,80,2012-11-13 10:53:00
4:53 AM,21.0,15.1,78,30.42,10.0,Calm,Calm,-,N/A,,Clear,0,2012-11-13 11:53:00
5:53 AM,18.0,14.0,84,30.45,10.0,Calm,Calm,-,N/A,,Clear,0,2012-11-13 12:53:00
6:53 AM,17.1,12.9,84,30.47,10.0,East,3.5,-,N/A,,Clear,90,2012-11-13 13:53:00
7:53 AM,23.0,16.0,74,30.50,10.0,East,3.5,-,N/A,,Clear,100,2012-11-13 14:53:00
8:53 AM,28.0,17.1,63,30.48,10.0,ESE,4.6,-,N/A,,Clear,120,2012-11-13 15:53:00
9:53 AM,32.0,18.0,56,30.47,10.0,SE,4.6,-,N/A,,Clear,130,2012-11-13 16:53:00
10:53 AM,37.0,16.0,42,30.45,10.0,WSW,4.6,-,N/A,,Clear,240,2012-11-13 17:53:00
11:53 AM,41.0,16.0,36,30.40,10.0,West,8.1,-,N/A,,Clear,280,2012-11-13 18:53:00
12:53 PM,44.1,10.9,26,30.36,10.0,West,10.4,-,N/A,,Clear,270,2012-11-13 19:53:00
1:53 PM,45.0,10.0,24,30.34,10.0,West,6.9,-,N/A,,Clear,270,2012-11-13 20:53:00
2:53 PM,46.9,9.0,21,30.32,10.0,West,10.4,-,N/A,,Clear,270,2012-11-13 21:53:00
3:53 PM,46.9,8.1,21,30.32,10.0,West,8.1,-,N/A,,Clear,260,2012-11-13 22:53:00
4:53 PM,43.0,9.0,25,30.35,10.0,West,5.8,-,N/A,,Clear,270,2012-11-13 23:53:00
5:53 PM,41.0,10.9,29,30.37,10.0,West,4.6,-,N/A,,Clear,270,2012-11-14 00:53:00
6:53 PM,37.0,10.9,34,30.41,10.0,Calm,Calm,-,N/A,,Clear,0,2012-11-14 01:53:00
7:53 PM,30.9,15.1,52,30.42,10.0,ENE,3.5,-,N/A,,Clear,70,2012-11-14 02:53:00
8:53 PM,27.0,16.0,63,30.43,10.0,NNE,3.5,-,N/A,,Clear,20,2012-11-14 03:53:00
9:53 PM,27.0,16.0,63,30.43,10.0,NE,6.9,-,N/A,,Clear,50,2012-11-14 04:53:00
10:53 PM,25.0,16.0,69,30.43,10.0,ENE,6.9,-,N/A,,Clear,70,2012-11-14 05:53:00
11:53 PM,27.0,17.1,66,30.41,10.0,East,5.8,-,N/A,,Clear,90,2012-11-14 06:53:00